TimePST,TemperatureF,Dew PointF,Humidity,Sea Level PressureIn,VisibilityMPH,Wind Direction,Wind SpeedMPH,Gust SpeedMPH,PrecipitationIn,Events,Conditions,WindDirDegrees,DateUTC
12:03 AM,33.8,32.0,93,30.14,10.0,SE,5.8,-,N/A,,Overcast,140,2013-11-09 08:03:00
12:14 AM,32.0,32.0,100,30.13,7.0,ESE,3.5,-,N/A,,Mostly Cloudy,110,2013-11-09 08:14:00
12:18 AM,32.0,32.0,100,30.13,4.0,East,3.5,-,N/A,,Mostly Cloudy,100,2013-11-09 08:18:00
12:20 AM,32.0,32.0,100,30.14,2.5,ESE,2.3,-,N/A,,Mostly Cloudy,110,2013-11-09 08:20:00
12:21 AM,32.0,32.0,100,30.14,1.8,ESE,2.3,-,N/A,,Mostly Cloudy,110,2013-11-09 08:21:00
12:22 AM,32.0,32.0,100,30.14,1.5,ESE,2.3,-,N/A,,Mostly Cloudy,120,2013-11-09 08:22:00
12:24 AM,32.0,32.0,100,30.14,1.0,ESE,2.3,-,N/A,,Mostly Cloudy,120,2013-11-09 08:24:00
12:26 AM,32.0,32.0,100,30.14,1.0,ESE,2.3,-,N/A,,Mostly Cloudy,120,2013-11-09 08:26:00
12:27 AM,32.0,32.0,100,30.14,0.8,ESE,2.3,-,N/A,,Mostly Cloudy,120,2013-11-09 08:27:00
12:29 AM,32.0,32.0,100,30.14,0.8,ESE,2.3,-,N/A,,Mostly Cloudy,120,2013-11-09 08:29:00
12:33 AM,32.0,32.0,100,30.14,0.8,ESE,3.5,-,N/A,,Mist,110,2013-11-09 08:33:00
12:36 AM,32.0,32.0,100,30.14,0.8,ESE,3.5,-,N/A,,Mist,120,2013-11-09 08:36:00
12:38 AM,32.0,32.0,100,30.14,1.0,ESE,3.5,-,N/A,,Mist,120,2013-11-09 08:38:00
12:39 AM,32.0,32.0,100,30.14,1.2,ESE,3.5,-,N/A,,Scattered Clouds,120,2013-11-09 08:39:00
12:41 AM,32.0,32.0,100,30.14,1.5,SE,3.5,-,N/A,,Scattered Clouds,130,2013-11-09 08:41:00
12:42 AM,32.0,32.0,100,30.14,1.8,SE,2.3,-,N/A,,Scattered Clouds,130,2013-11-09 08:42:00
12:44 AM,32.0,32.0,100,30.14,2.5,SE,2.3,-,N/A,,Scattered Clouds,140,2013-11-09 08:44:00
12:46 AM,32.0,32.0,100,30.14,4.0,SE,2.3,-,N/A,,Scattered Clouds,140,2013-11-09 08:46:00
12:50 AM,32.0,32.0,100,30.14,9.0,SE,3.5,-,N/A,,Partly Cloudy,130,2013-11-09 08:50:00
12:58 AM,32.2,31.8,99,30.19,9.0,ESE,2.3,-,N/A,,Partly Cloudy,110,2013-11-09 08:58:00
12:59 AM,32.0,32.0,100,30.14,9.0,ESE,2.3,-,N/A,,Partly Cloudy,110,2013-11-09 08:59:00
1:04 AM,32.0,32.0,100,30.14,9.0,Calm,Calm,-,N/A,,Clear,0,2013-11-09 09:04:00
1:05 AM,32.0,32.0,100,30.14,9.0,Calm,Calm,-,N/A,,Clear,0,2013-11-09 09:05:00
1:13 AM,32.0,32.0,100,30.14,10.0,ESE,4.6,-,N/A,,Clear,110,2013-11-09 09:13:00
1:58 AM,32.2,31.8,99,30.19,10.0,East,1.2,-,0.00,,Clear,100,2013-11-09 09:58:00
1:59 AM,32.0,32.0,100,30.14,7.0,Calm,Calm,-,N/A,,Clear,0,2013-11-09 09:59:00
2:12 AM,32.0,32.0,100,30.15,10.0,Calm,Calm,-,N/A,,Clear,0,2013-11-09 10:12:00
2:58 AM,31.1,30.9,99,30.21,10.0,ENE,2.3,-,N/A,,Clear,60,2013-11-09 10:58:00
3:02 AM,32.0,30.2,93,30.15,7.0,ENE,2.3,-,N/A,,Clear,60,2013-11-09 11:02:00
3:05 AM,30.2,30.2,100,30.15,3.0,ENE,2.3,-,N/A,,Clear,70,2013-11-09 11:05:00
3:07 AM,30.2,30.2,100,30.15,2.5,ENE,1.2,-,N/A,,Clear,60,2013-11-09 11:07:00
3:13 AM,30.2,30.2,100,30.15,3.0,ENE,2.3,-,N/A,,Clear,60,2013-11-09 11:13:00
3:14 AM,30.2,30.2,100,30.15,4.0,NE,2.3,-,N/A,,Clear,50,2013-11-09 11:14:00
3:18 AM,30.2,30.2,100,30.15,9.0,NE,2.3,-,N/A,,Clear,50,2013-11-09 11:18:00
3:48 AM,30.2,28.4,93,30.15,10.0,NE,3.5,-,N/A,,Clear,40,2013-11-09 11:48:00
3:58 AM,30.4,30.2,99,30.21,10.0,NE,6.9,-,0.00,,Clear,50,2013-11-09 11:58:00
3:59 AM,32.0,32.0,100,30.15,10.0,NE,6.9,-,N/A,,Clear,50,2013-11-09 11:59:00
4:06 AM,32.0,32.0,100,30.15,8.0,NE,5.8,-,N/A,,Clear,50,2013-11-09 12:06:00
4:09 AM,32.0,32.0,100,30.15,2.5,NE,5.8,-,N/A,,Clear,40,2013-11-09 12:09:00
4:11 AM,32.0,32.0,100,30.15,1.2,NE,5.8,-,N/A,,Clear,50,2013-11-09 12:11:00
4:12 AM,32.0,30.2,93,30.15,1.0,NE,5.8,-,N/A,,Clear,50,2013-11-09 12:12:00
4:14 AM,32.0,30.2,93,30.15,0.8,NE,5.8,-,N/A,,Clear,50,2013-11-09 12:14:00
4:15 AM,32.0,30.2,93,30.15,0.5,ENE,4.6,-,N/A,Fog,Light Freezing Fog,60,2013-11-09 12:15:00
4:16 AM,32.0,30.2,93,30.15,0.5,ENE,4.6,-,N/A,Fog,Light Freezing Fog,60,2013-11-09 12:16:00
4:22 AM,30.2,30.2,100,30.15,0.2,ENE,4.6,-,N/A,Fog,Light Freezing Fog,60,2013-11-09 12:22:00
4:23 AM,30.2,30.2,100,30.15,0.2,ENE,4.6,-,N/A,Fog,Light Freezing Fog,60,2013-11-09 12:23:00
4:31 AM,30.2,30.2,100,30.15,0.5,NE,5.8,-,N/A,Fog,Light Freezing Fog,50,2013-11-09 12:31:00
4:39 AM,28.4,28.4,100,30.16,0.2,NNE,4.6,-,N/A,Fog-Rain,Light Freezing Rain,20,2013-11-09 12:39:00
4:51 AM,30.2,30.2,100,30.16,0.2,NNE,3.5,-,N/A,Fog-Rain,Light Freezing Rain,30,2013-11-09 12:51:00
4:58 AM,29.5,29.3,99,30.23,0.2,NNE,2.3,-,0.00,Fog-Rain,Light Freezing Rain,30,2013-11-09 12:58:00
6:58 AM,29.3,29.1,99,30.25,0.2,NNE,4.6,-,0.00,Fog,Light Freezing Fog,20,2013-11-09 14:58:00
7:06 AM,28.4,28.4,100,30.17,0.2,North,4.6,-,N/A,Fog-Rain,Light Freezing Rain,360,2013-11-09 15:06:00
7:10 AM,30.2,28.4,93,30.18,0.2,North,3.5,-,N/A,Fog-Rain,Light Freezing Rain,360,2013-11-09 15:10:00
7:17 AM,30.2,30.2,100,30.17,0.2,North,3.5,-,N/A,Fog-Rain,Light Freezing Rain,360,2013-11-09 15:17:00
7:28 AM,30.2,30.2,100,30.17,0.2,NNE,4.6,-,N/A,Fog-Rain,Light Freezing Rain,20,2013-11-09 15:28:00
7:30 AM,30.2,30.2,100,30.17,0.2,NNE,4.6,-,N/A,Fog-Rain,Light Freezing Rain,20,2013-11-09 15:30:00
7:54 AM,32.0,32.0,100,30.17,0.2,NNE,5.8,-,N/A,Fog-Rain,Light Freezing Rain,30,2013-11-09 15:54:00
7:58 AM,32.0,32.0,100,30.24,0.2,NNE,5.8,-,0.00,Fog-Rain,Light Freezing Rain,30,2013-11-09 15:58:00
7:59 AM,32.0,32.0,100,30.17,0.2,NNE,5.8,-,N/A,Fog,Light Freezing Fog,30,2013-11-09 15:59:00
8:06 AM,32.0,32.0,100,30.17,0.2,NNE,5.8,-,N/A,Fog,Light Freezing Fog,30,2013-11-09 16:06:00
8:07 AM,32.0,32.0,100,30.17,0.2,NNE,5.8,-,N/A,Fog,Light Freezing Fog,30,2013-11-09 16:07:00
8:15 AM,32.0,32.0,100,30.17,0.2,NNE,5.8,-,N/A,Fog,Light Freezing Fog,30,2013-11-09 16:15:00
8:21 AM,32.0,32.0,100,30.17,0.2,NE,6.9,-,N/A,Fog,Light Freezing Fog,40,2013-11-09 16:21:00
8:31 AM,32.0,32.0,100,30.17,0.2,NE,5.8,-,N/A,Fog,Light Freezing Fog,40,2013-11-09 16:31:00
8:42 AM,32.0,32.0,100,30.17,0.2,NE,5.8,-,N/A,Fog,Light Freezing Fog,40,2013-11-09 16:42:00
8:50 AM,32.0,32.0,100,30.17,0.2,NE,4.6,-,N/A,Fog,Light Freezing Fog,40,2013-11-09 16:50:00
8:52 AM,32.0,32.0,100,30.17,0.2,NE,4.6,-,N/A,Fog,Light Freezing Fog,40,2013-11-09 16:52:00
8:54 AM,32.0,32.0,100,30.18,0.2,NE,4.6,-,N/A,Fog,Light Freezing Fog,40,2013-11-09 16:54:00
8:55 AM,32.0,32.0,100,30.18,0.2,NE,4.6,-,N/A,Fog,Light Freezing Fog,40,2013-11-09 16:55:00
8:58 AM,32.0,32.0,100,30.25,0.2,NE,4.6,-,0.00,Fog,Light Freezing Fog,40,2013-11-09 16:58:00
9:04 AM,32.0,32.0,100,30.18,0.2,NE,4.6,-,N/A,Fog,Light Freezing Fog,40,2013-11-09 17:04:00
9:11 AM,32.0,32.0,100,30.18,0.2,NNE,5.8,-,N/A,Fog,Light Freezing Fog,30,2013-11-09 17:11:00
9:25 AM,32.0,32.0,100,30.18,0.2,NE,6.9,-,N/A,Fog,Fog,40,2013-11-09 17:25:00
9:34 AM,32.0,32.0,100,30.18,0.2,NNE,8.1,-,N/A,Fog,Fog,30,2013-11-09 17:34:00
9:42 AM,32.0,32.0,100,30.18,0.2,NNE,8.1,-,N/A,Fog,Fog,30,2013-11-09 17:42:00
9:44 AM,32.0,32.0,100,30.18,0.5,NNE,6.9,-,N/A,Fog,Fog,20,2013-11-09 17:44:00
9:49 AM,33.8,32.0,93,30.18,0.5,NNE,6.9,-,N/A,Fog,Fog,30,2013-11-09 17:49:00
9:51 AM,33.8,33.8,100,30.18,0.8,NNE,6.9,-,N/A,,Mist,20,2013-11-09 17:51:00
9:52 AM,33.8,33.8,100,30.18,0.8,North,8.1,-,N/A,,Mist,10,2013-11-09 17:52:00
9:54 AM,33.8,33.8,100,30.18,1.0,NNE,8.1,-,N/A,,Mist,20,2013-11-09 17:54:00
9:55 AM,33.8,33.8,100,30.18,1.2,North,8.1,-,N/A,,Mostly Cloudy,10,2013-11-09 17:55:00
9:57 AM,33.8,33.8,100,30.18,1.5,North,8.1,-,N/A,,Mostly Cloudy,10,2013-11-09 17:57:00
9:58 AM,33.8,33.8,100,30.25,1.8,North,8.1,-,N/A,,Mostly Cloudy,10,2013-11-09 17:58:00
10:00 AM,33.8,33.8,100,30.18,2.0,NNE,6.9,-,N/A,,Mostly Cloudy,30,2013-11-09 18:00:00
10:08 AM,33.8,33.8,100,30.17,2.5,NNE,8.1,-,N/A,,Mostly Cloudy,30,2013-11-09 18:08:00
10:10 AM,33.8,33.8,100,30.17,3.0,NNE,9.2,-,N/A,,Mostly Cloudy,30,2013-11-09 18:10:00
10:14 AM,33.8,33.8,100,30.17,2.0,NE,9.2,-,N/A,,Mostly Cloudy,40,2013-11-09 18:14:00
10:16 AM,33.8,33.8,100,30.17,1.2,NE,8.1,-,N/A,,Mostly Cloudy,40,2013-11-09 18:16:00
10:17 AM,33.8,33.8,100,30.17,1.0,NE,8.1,-,N/A,,Mist,40,2013-11-09 18:17:00
10:18 AM,33.8,33.8,100,30.17,0.8,NE,9.2,-,N/A,,Mist,40,2013-11-09 18:18:00
10:19 AM,33.8,33.8,100,30.17,0.5,NNE,9.2,-,N/A,Fog,Fog,30,2013-11-09 18:19:00
10:20 AM,33.8,33.8,100,30.17,0.5,NE,8.1,-,N/A,Fog,Fog,40,2013-11-09 18:20:00
10:21 AM,33.8,33.8,100,30.17,0.5,NE,8.1,-,N/A,Fog,Fog,40,2013-11-09 18:21:00
10:23 AM,33.8,33.8,100,30.17,0.5,NNE,8.1,-,N/A,Fog,Fog,30,2013-11-09 18:23:00
10:28 AM,35.6,33.8,93,30.17,0.5,NNE,8.1,-,N/A,Fog,Fog,30,2013-11-09 18:28:00
10:36 AM,35.6,35.6,100,30.16,0.5,Variable,6.9,-,N/A,Fog,Fog,0,2013-11-09 18:36:00
10:37 AM,35.6,35.6,100,30.17,0.5,NNE,6.9,-,N/A,Fog,Fog,20,2013-11-09 18:37:00
10:38 AM,35.6,35.6,100,30.17,0.8,NNE,6.9,-,N/A,,Mist,20,2013-11-09 18:38:00
10:39 AM,35.6,35.6,100,30.17,0.8,North,6.9,-,N/A,,Mist,10,2013-11-09 18:39:00
10:41 AM,35.6,35.6,100,30.17,1.2,NNE,5.8,-,N/A,,Overcast,20,2013-11-09 18:41:00
10:43 AM,35.6,35.6,100,30.17,2.0,Variable,6.9,-,N/A,,Overcast,0,2013-11-09 18:43:00
10:45 AM,35.6,35.6,100,30.17,3.0,NNE,8.1,-,N/A,,Overcast,30,2013-11-09 18:45:00
10:58 AM,36.3,36.1,99,30.23,10.0,NE,10.4,-,0.00,,Mostly Cloudy,40,2013-11-09 18:58:00
11:03 AM,35.6,35.6,100,30.16,10.0,NNE,10.4,-,N/A,,Mostly Cloudy,30,2013-11-09 19:03:00
11:58 AM,39.2,39.0,99,30.20,10.0,NNE,11.5,-,N/A,,Overcast,30,2013-11-09 19:58:00
12:58 PM,41.7,36.5,82,30.19,10.0,NNE,10.4,-,N/A,,Overcast,30,2013-11-09 20:58:00
1:58 PM,42.3,36.5,80,30.18,10.0,NNE,8.1,-,N/A,,Mostly Cloudy,30,2013-11-09 21:58:00
2:58 PM,42.4,37.0,81,30.17,10.0,NNE,9.2,-,N/A,,Overcast,30,2013-11-09 22:58:00
3:58 PM,42.3,36.9,81,30.17,10.0,North,6.9,-,N/A,,Clear,10,2013-11-09 23:58:00
4:21 PM,41.0,37.4,87,30.12,10.0,North,6.9,-,N/A,Rain,Light Rain,10,2013-11-10 00:21:00
4:34 PM,41.0,37.4,87,30.12,10.0,North,5.8,-,N/A,,Clear,10,2013-11-10 00:34:00
4:56 PM,41.0,37.4,87,30.12,10.0,NNE,5.8,-,N/A,Rain,Light Rain,20,2013-11-10 00:56:00
4:58 PM,41.2,37.4,86,30.19,10.0,NNE,5.8,-,0.00,Rain,Light Rain,20,2013-11-10 00:58:00
5:49 PM,41.0,37.4,87,30.11,7.0,North,10.4,-,N/A,,Mostly Cloudy,10,2013-11-10 01:49:00
5:58 PM,40.3,37.4,89,30.11,10.0,NNE,8.1,-,0.00,,Overcast,20,2013-11-10 01:58:00
6:58 PM,40.3,37.0,88,30.17,10.0,NNE,9.2,-,N/A,,Partly Cloudy,20,2013-11-10 02:58:00
7:58 PM,39.9,36.7,88,30.18,10.0,North,6.9,-,N/A,,Mostly Cloudy,360,2013-11-10 03:58:00
8:11 PM,39.2,37.4,93,30.11,10.0,North,5.8,-,N/A,Rain,Light Rain,350,2013-11-10 04:11:00
8:56 PM,39.2,37.4,93,30.12,10.0,North,9.2,-,N/A,Rain,Light Rain,360,2013-11-10 04:56:00
8:58 PM,39.0,37.0,93,30.19,10.0,North,10.4,-,0.00,Rain,Light Rain,350,2013-11-10 04:58:00
9:03 PM,39.2,37.4,93,30.12,10.0,North,8.1,-,N/A,Rain,Light Rain,360,2013-11-10 05:03:00
9:58 PM,38.3,37.0,95,30.17,10.0,North,6.9,-,0.00,Rain,Light Rain,350,2013-11-10 05:58:00
10:16 PM,39.2,37.4,93,30.11,10.0,North,8.1,-,N/A,,Scattered Clouds,360,2013-11-10 06:16:00
10:58 PM,38.3,37.2,96,30.17,10.0,North,8.1,-,0.00,,Overcast,10,2013-11-10 06:58:00
11:58 PM,38.1,37.4,97,30.17,10.0,NNE,6.9,-,N/A,,Mostly Cloudy,30,2013-11-10 07:58:00